{"data":{"norad_id":58365,"epoch":"2026-09-20T06:21:27.632160Z","epoch_age_seconds":163891,"freshness":"FRESH","line1":"1 58365U 23177Q   26263.26490315 -.00012474  00000+0 -44385-3 0  9992","line2":"2 58365  43.0042 331.8814 0001203 224.6381 135.4374 15.27628615157971","mean_motion":15.27628615,"eccentricity":0.0001203,"inclination_deg":43.0042,"raan_deg":331.8814,"arg_perigee_deg":224.6381,"mean_anomaly_deg":135.4374,"bstar":-0.00044385,"rev_number":15797,"period_min":94.263748784255,"perigee_km":482.07814592538,"apogee_km":483.72891227668,"semimajor_km":6861.040529101,"source":"CELESTRAK","updated_at":"2026-09-21T09:00:33.843750Z"}}